Terminal Aerodrome Forecast
Issued by NWS Billings, MT

Home | Current Version | Previous Version | Text Only | Print | Product List | Glossary On
Versions: 1 2 3 4 5 6 7 8 9 10 11 12 13 14 15 16 17 18 19 20 21 22 23 24 25 26 27 28 29 30 31 32 33 34 35 36 37 38 39 40 41 42 43 44 45 46
000
FTUS45 KBYZ 272059 AAA
TAFMLS
TAF AMD
KMLS 272059Z 2721/2818 03018KT P6SM SCT200
     FM280200 03014KT P6SM OVC120
     FM280500 07018KT P6SM VCSH OVC070
     FM281400 03013KT P6SM -SHRA OVC030=

USA.gov is the U.S. government's official web portal to all federal, state and local government web resources and services.